Location: Croydon
(51.3762°N, 0.0982°W)
Time: 02:28:28
(UTC+00:00)

Altair - Pass Details

Date: 16 November 2019
Orbit: 1502 x 1682 km, 47.2° (Epoch: 09 December)

Event Time Altitude Azimuth Distance (km) Brightness Sun altitude
Rises 11:27:41 0° 285° (WNW) 4,698 9.9 19.8°
Reaches altitude 10° 11:32:18 10° 265° (W) 3,743 9.6 19.8°
Maximum altitude 11:37:18 16° 232° (SW) 3,336 9.9 19.9°
Drops below altitude 10° 11:42:24 10° 200° (SSW) 3,810 11.1 19.9°
Sets 11:47:13 0° 180° (S) 4,828 11.8 19.9°
